Location: Newark
(52.3500°N, 175.9667°E)
Time: 22:52:07
(UTC+00:00)

Altair - Pass Details

Date: 01 May 2021
Orbit: 1501 x 1683 km, 47.2° (Epoch: 13 May)

Event Time Altitude Azimuth Distance (km) Brightness Sun altitude
Rises 20:22:59 0° 284° (WNW) 4,860 9.6 31.7°
Reaches altitude 10° 20:26:22 10° 277° (W) 3,848 9.2 32.2°
Maximum altitude 20:35:14 42° 212° (SSW) 2,136 8.5 33.5°
Drops below altitude 10° 20:43:47 10° 146° (SE) 3,706 10.4 34.7°
Sets 20:46:59 0° 140° (SE) 4,667 10.8 35.2°
